Poplar Bluff, MO

12:03 PM CST on November 20, 2019 (GMT -0600)
Poplar Bluff Municipal

Weather History for KPOF - October, 2019

Change the Weather History Date:

Monday, October 21, 2019

  Actual Average Record
Temperature  
Mean Temperature 62 °F 57 °F  
Max Temperature 70 °F 70 °F 89 °F (1920)
Min Temperature 55 °F 45 °F 24 °F (1952)
Degree Days  
Heating Degree Days 2 8  
Month to date heating degree days 118 123  
Since 1 July heating degree days 118 152  
Cooling Degree Days 0 1  
Month to date cooling degree days 49 31  
Year to date cooling degree days 1830 1558  
Growing Degree Days 12 (Base 50)    
Moisture  
Dew Point 56 °F    
Average Humidity 77    
Maximum Humidity 94    
Minimum Humidity 40    
Precipitation  
Precipitation 0.94 in 0.17 in 2.10 in (1984)
Month to date precipitation 2.33 2.90  
Year to date precipitation 56.95 37.43  
Sea Level Pressure  
Sea Level Pressure 29.67 in    
Wind  
Wind Speed 11 mph ()    
Max Wind Speed 24 mph    
Max Gust Speed 36 mph    
Visibility 8.7 miles    
Events Rain , Thunderstorm    
T = Trace of Precipitation, MM = Missing Value Source: Averaged Metar Reports

Daily Weather History Graph

Daily Weather History Graph

Search for Another Location

Airport or City:

Astronomy

Oct. 21, 2019 Rise Set
Actual Time 7:14 AM CDT 6:17 PM CDT
Civil Twilight 6:47 AM CDT 6:43 PM CDT
Nautical Twilight 6:17 AM CDT 7:13 PM CDT
Astronomical Twilight 5:47 AM CDT 7:43 PM CDT
Moon No Moon Rise 2:26 PM CDT (10/21)
Length of Visible Light 11h 55m
Length of Day
11h 03m
Waning Gibbous, 48% of the Moon is Illuminated
Oct 21
Waning Gibbous
Oct 27
New
Nov 4
First Quarter
Nov 12
Full
Nov 19
Last Quarter

Hourly Weather History & Observations

Time (CDT) Temp. Dew Point Humidity Pressure Visibility Wind Dir Wind Speed Gust Speed Precip Events Conditions
12:53 AM 64.9 °F 60.1 °F 84% 29.68 in 10.0 mi SSE 11.5 mph - N/A   Scattered Clouds
1:53 AM 66.0 °F 60.1 °F 81% 29.64 in 10.0 mi SSE 12.7 mph - N/A   Mostly Cloudy
2:53 AM 66.9 °F 61.0 °F 81% 29.61 in 10.0 mi SSE 17.3 mph 26.5 mph 0.00 in Rain Light Rain
3:12 AM 66.9 °F 62.1 °F 84% 29.61 in 10.0 mi South 12.7 mph - 0.00 in Rain , Thunderstorm Light Rain
3:14 AM 66.9 °F 62.1 °F 84% 29.61 in 10.0 mi SSE 10.4 mph 20.7 mph 0.00 in Rain , Thunderstorm Light Thunderstorms and Rain
3:37 AM 66.2 °F 62.6 °F 88% 29.60 in 10.0 mi South 9.2 mph - N/A Rain , Thunderstorm Light Rain
3:49 AM 66.2 °F 64.4 °F 94% 29.60 in 6.0 mi South 16.1 mph 25.3 mph 0.04 in Rain , Thunderstorm Light Thunderstorms and Rain
3:53 AM 68.0 °F 64.9 °F 90% 29.58 in 8.0 mi South 11.5 mph 25.3 mph 0.04 in Rain , Thunderstorm Thunderstorms and Rain
4:13 AM 68.0 °F 64.9 °F 90% 29.62 in 10.0 mi West 18.4 mph 26.5 mph 0.05 in Rain , Thunderstorm Heavy Thunderstorms and Rain
4:17 AM 68.0 °F 64.9 °F 90% 29.63 in 4.0 mi WSW 13.8 mph 26.5 mph 0.05 in Rain , Thunderstorm Heavy Rain
4:26 AM 68.0 °F 64.0 °F 87% 29.63 in 4.0 mi West 16.1 mph 27.6 mph 0.17 in Rain , Thunderstorm Heavy Rain
4:32 AM 64.9 °F 61.0 °F 87% 29.64 in 2.5 mi West 23.0 mph 35.7 mph 0.21 in Rain , Thunderstorm Heavy Thunderstorms and Rain
4:36 AM 64.0 °F 60.1 °F 87% 29.66 in 1.8 mi West 21.9 mph 35.7 mph 0.26 in Rain , Thunderstorm Heavy Thunderstorms and Rain
4:53 AM 63.0 °F 59.0 °F 87% 29.63 in 2.5 mi West 9.2 mph 24.2 mph 0.57 in Rain , Thunderstorm Light Thunderstorms and Rain
4:57 AM 63.0 °F 59.0 °F 87% 29.64 in 5.0 mi West 6.9 mph 24.2 mph 0.01 in Rain , Thunderstorm Light Rain
5:14 AM 63.0 °F 59.0 °F 87% 29.62 in 4.0 mi Calm Calm - 0.04 in Rain Rain
5:53 AM 62.1 °F 60.1 °F 93% 29.65 in 10.0 mi SSE 8.1 mph - 0.10 in Rain Light Rain
6:53 AM 61.0 °F 59.0 °F 93% 29.62 in 7.0 mi SE 10.4 mph - 0.18 in Rain , Thunderstorm Thunderstorms and Rain
7:07 AM 61.0 °F 59.0 °F 93% 29.59 in 9.0 mi SE 9.2 mph - 0.03 in Rain Light Rain
7:53 AM 61.0 °F 57.9 °F 90% 29.53 in 10.0 mi SE 18.4 mph 25.3 mph 0.05 in Rain Light Rain
8:53 AM 62.1 °F 57.9 °F 86% 29.65 in 10.0 mi South 12.7 mph - 0.00 in   Scattered Clouds
9:53 AM 63.0 °F 59.0 °F 87% 29.65 in 10.0 mi SSW 13.8 mph - N/A   Overcast
10:53 AM 64.0 °F 60.1 °F 87% 29.66 in 10.0 mi South 17.3 mph 26.5 mph 0.00 in Rain Light Rain
11:01 AM 64.0 °F 61.0 °F 90% 29.67 in 10.0 mi SSW 17.3 mph 25.3 mph 0.00 in Rain Light Rain
11:20 AM 64.0 °F 60.1 °F 87% 29.68 in 10.0 mi SW 15.0 mph 21.9 mph 0.00 in Rain Light Rain
11:34 AM 64.0 °F 61.0 °F 90% 29.68 in 10.0 mi WSW 10.4 mph - 0.00 in Rain Light Rain
11:53 AM 64.9 °F 61.0 °F 87% 29.68 in 10.0 mi SSW 16.1 mph 24.2 mph 0.00 in   Overcast
12:03 PM 66.0 °F 62.1 °F 87% 29.69 in 10.0 mi SSW 13.8 mph 23.0 mph N/A   Overcast
12:37 PM 64.9 °F 55.9 °F 73% 29.69 in 10.0 mi SW 11.5 mph 20.7 mph N/A   Mostly Cloudy
12:48 PM 66.2 °F 57.2 °F 73% 29.69 in 10.0 mi SW 10.4 mph - N/A   Scattered Clouds
12:53 PM 66.9 °F 57.0 °F 70% 29.68 in 10.0 mi Variable 6.9 mph 18.4 mph N/A   Partly Cloudy
1:53 PM 66.9 °F 54.0 °F 63% 29.67 in 10.0 mi SW 12.7 mph 23.0 mph N/A   Clear
2:53 PM 70.0 °F 54.0 °F 57% 29.67 in 10.0 mi SW 13.8 mph 24.2 mph N/A   Clear
3:53 PM 70.0 °F 48.9 °F 47% 29.68 in 10.0 mi WSW 13.8 mph 23.0 mph N/A   Clear
4:53 PM 69.1 °F 45.0 °F 42% 29.69 in 10.0 mi SW 13.8 mph 24.2 mph N/A   Clear
5:53 PM 66.0 °F 46.0 °F 48% 29.71 in 10.0 mi SW 6.9 mph - N/A   Clear
6:53 PM 62.1 °F 44.1 °F 52% 29.73 in 10.0 mi West 4.6 mph - N/A   Clear
7:53 PM 59.0 °F 43.0 °F 55% 29.77 in 10.0 mi WSW 3.5 mph - N/A   Clear
8:53 PM 59.0 °F 39.9 °F 49% 29.81 in 10.0 mi West 9.2 mph - N/A   Clear
9:53 PM 57.0 °F 39.9 °F 53% 29.85 in 10.0 mi WSW 5.8 mph - N/A   Clear
10:53 PM 55.9 °F 39.0 °F 53% 29.86 in 10.0 mi WSW 6.9 mph - N/A   Clear
11:53 PM 55.0 °F 39.0 °F 55% 29.85 in 10.0 mi SW 6.9 mph - N/A   Clear